DELTA 1 DEB, 29185

Orbit data source: Space-Track

DELTA 1 DEB, 29185 is space debris in LEO originally from a launch on Thu, 11 Jan 1968 UTC launched from the Air Force Western Test Range (AFWTR). Debris objects in space refer to the collection of defunct objects orbiting the Earth. Examples of debris include non-operational satellites, rocket bodies, and fragments generated from explosions, collisions, or faulty payload assembly.

Loading next visibility...
DELTA 1 DEB details
Identifier
29185, 1968-002J
Orbit
LEO
Last TLE update2 days ago
Origin
Flag of USGSFC (US)
ManufacturerUnknown
MissionSpacecraft
Bus & MotorUnknown
MassUnknown
Launch date (UTC)
1968-01-11 (57 years ago)
Launch vehicleUnknown
Launch site
Air Force Western Test Range (AFWTR)
Object type
Payload
Rocket body
Debris
Shape & HBRUnknown
Radar Cross SectionSmall (<0.1 m²)

Expand to show TLE details & history

TLE from 2 days ago
0 DELTA 1 DEB
1 29185U 68002J   24354.54320494  .00001151  00000-0  26821-2 0  9999
2 29185 105.7885 276.5747 0236664 164.4383 196.4143 13.19200292995285
Epoch: 2024-12-19T13:02Z
Definitive object data (Epoch: 2024-12-19T13:02:12.906Z)
Latitude-0.00001°
Longitude-7.60063°
Altitude1,362.369 km
Speed7.095 km/s
True Right ascension18h 26m 17s
True Declination0° 00' 00"
Sunlit
Object was in daylight at TLE epoch
Visualization TLE readout
Latitude-58.73825°
Longitude22.92826°
Altitude1,337.954 km
Speed7.127 km/s
Apparent Right ascension21h 53m 51s
Apparent Declination-51° 40' 40"
Sunlit
Object is in daylight
Visualization observer readout
Local Sidereal Time11:03:17
Azimuth140.191° SSE
Elevation-73.205°
Doppler factor1
Orbital elements
Apogee altitude1,364.52 km
Perigee altitude1,006.511 km
Semi-major axis7,563.652 km
Eccentricity0.0236664
Inclination105.7885°
RAAN276.5747°
Arg. of periapsis164.4383°
True anomaly195.66914°
Mean anomaly196.4143°
Eccentric anomaly196.03964°
Mean motion3.29948 °/min
BSTAR0.0026821
Orbital period109.11 mins
Loading maneuver chart data...
Loading historical data...
Loading historical data...
Loading historical data...
Loading historical data...
Loading historical data...
Loading historical data...
Loading historical data...

DELTA 1 DEB Visibility forecast

Observer location: undefined°, undefined

Span
Click to sort rows by Start time (UTC) header in descending order
Start Az.
Max El. time (UTC)
Max El. Az.
Max El.
End time (UTC)
End Az.
4 mins2024-12-21 16:15:33.159Z59.997° ENE2024-12-21 16:17:33.159Z43.635° NE11.707°2024-12-21 16:19:33.159Z26.674° NE
12 mins2024-12-21 17:57:33.159Z129.254° SE2024-12-21 18:03:33.159Z47.984° ENE38.332°2024-12-21 18:09:33.159Z347.854° N
11 mins2024-12-21 19:44:33.159Z200.073° SSW2024-12-21 19:49:33.159Z250.238° W28.849°2024-12-21 19:55:33.159Z314.121° NW
7 mins2024-12-22 07:13:33.159Z64.527° ENE2024-12-22 07:16:33.159Z102.154° ESE22.01°2024-12-22 07:20:33.159Z148.404° SSE
11 mins2024-12-22 08:58:33.159Z11.398° NNE2024-12-22 09:03:33.159Z303.174° NW39.123°2024-12-22 09:09:33.159Z223.622° SW
|